スペースウォッチ-リニア彗星

475P/Spacewatch-LINEAR (2004)

English version
Home page
Updated on February 21, 2024

---------------------------------------------------------------------

・ プロフィール

符号 475P/2004 DO29
発見日 2004年2月17日
発見光度 19.8等、19.4等
発見者 A. E. Gleason (Steward Observatory, Kitt Peak), Lincoln Laboratory Near-Earth Asteroid Research project

・ 軌道要素

                    Epoch = 2004 Oct.  2.0 TT
     T = 2004 Oct.  9.28443 TT        Peri. =  41.58759
     e = 0.4495120                    Node  = 147.77741 2000.0
     q = 4.0968279 AU                 Incl. =  14.49558
       a =  7.4421753 AU   n = 0.04854609   P =  20.30 years

・ 星図

・ 光度変化

        m1 = 10.0 + 5 logΔ + 10.0 log r

---------------------------------------------------------------------

軌道要素は、CBET 5335に掲載されたものです。
星図は StellaNavigator Ver.2.0 for Windows (アストロアーツ 編著 / アスキー出版局刊) で作成したものです。
光度グラフはComet for Windowsで作成したものです。

---------------------------------------------------------------------

Copyright(C) Seiichi Yoshida (comet@aerith.net). All rights reserved.